New Braunfels, TX

8:35 AM CDT on September 23, 2017 (GMT -0500)
New Braunfels Municipal

Weather History for KBAZ - May, 2014

Change the Weather History Date:

Tuesday, May 27, 2014

  Actual Average (KRND) Record (KRND)
Temperature  
Mean Temperature 68 °F -  
Max Temperature 75 °F 88 °F 99 °F (2011)
Min Temperature 64 °F 68 °F 64 °F (1998)
Cooling Degree Days 4    
Growing Degree Days 18 (Base 50)    
Moisture  
Dew Point 67 °F    
Average Humidity 96    
Maximum Humidity 100    
Minimum Humidity 85    
Precipitation  
Precipitation 0.86 in - - ()
Sea Level Pressure  
Sea Level Pressure 29.92 in    
Wind  
Wind Speed 6 mph (East)    
Max Wind Speed 17 mph    
Max Gust Speed 25 mph    
Visibility 8 miles    
Events Rain , Thunderstorm    
Averages and records for this station are not official NWS values.
T = Trace of Precipitation, MM = Missing Value Source: NWS Daily Summary

Daily Weather History Graph

Daily Weather History Graph

Search for Another Location

Airport or City:

Trip Planner

Search our weather history database for the weather conditions in past years. The results will help you decide how hot, cold, wet, or windy it might be!

Date:

Astronomy

May. 27, 2014 Rise Set
Actual Time 6:33 AM CDT 8:25 PM CDT
Civil Twilight 6:06 AM CDT 8:52 PM CDT
Nautical Twilight 5:34 AM CDT 9:24 PM CDT
Astronomical Twilight 5:00 AM CDT 9:58 PM CDT
Moon 5:49 AM CDT (5/27) 7:34 PM CDT (5/27)
Length of Visible Light 14h 45m
Length of Day
13h 51m
Waning Crescent, 1% of the Moon is Illuminated
May 27
Waning Crescent
May 28
New
Jun 5
First Quarter
Jun 12
Full
Jun 19
Last Quarter

Hourly Weather History & Observations

Time (CDT) Temp. Dew Point Humidity Pressure Visibility Wind Dir Wind Speed Gust Speed Precip Events Conditions
12:24 AM 66.9 °F 66.0 °F 97% 29.99 in 10.0 mi East 3.5 mph - N/A   Mostly Cloudy
12:51 AM 66.9 °F 66.0 °F 97% 29.96 in 10.0 mi SE 8.1 mph - N/A   Mostly Cloudy
1:15 AM 66.0 °F 64.9 °F 96% 29.97 in 10.0 mi ESE 5.8 mph - N/A   Scattered Clouds
1:37 AM 66.9 °F 66.0 °F 97% 29.98 in 10.0 mi North 5.8 mph - N/A   Mostly Cloudy
1:51 AM 66.9 °F 66.0 °F 97% 29.96 in 10.0 mi ENE 4.6 mph - N/A   Overcast
2:48 AM 68.0 °F 66.2 °F 94% 29.95 in 10.0 mi ESE 3.5 mph - N/A   Overcast
2:51 AM 68.0 °F 66.9 °F 96% 29.94 in 10.0 mi East 3.5 mph - N/A   Overcast
3:03 AM 68.0 °F 66.9 °F 96% 29.95 in 10.0 mi East 4.6 mph - N/A   Overcast
3:19 AM 69.1 °F 68.0 °F 96% 29.94 in 9.0 mi SSE 6.9 mph - N/A   Overcast
3:46 AM 68.0 °F 68.0 °F 100% 29.94 in 1.8 mi SE 3.5 mph - N/A   Overcast
3:51 AM 68.0 °F 68.0 °F 100% 29.93 in 1.5 mi Calm Calm - N/A   Overcast
4:00 AM 68.0 °F 68.0 °F 100% 29.94 in 1.2 mi Calm Calm - N/A   Overcast
4:08 AM 69.1 °F 68.0 °F 96% 29.94 in 1.0 mi NE 5.8 mph - N/A   Mist
4:31 AM 68.0 °F 68.0 °F 100% 29.94 in 1.2 mi NE 5.8 mph - 0.00 in Rain Light Rain
4:38 AM 68.0 °F 68.0 °F 100% 29.94 in 1.5 mi NE 6.9 mph - 0.00 in   Overcast
4:46 AM 68.0 °F 68.0 °F 100% 29.94 in 1.8 mi ENE 6.9 mph - 0.00 in   Overcast
4:51 AM 68.0 °F 68.0 °F 100% 29.92 in 1.8 mi NE 5.8 mph - 0.00 in   Overcast
5:08 AM 68.0 °F 68.0 °F 100% 29.94 in 2.5 mi NE 12.7 mph - 0.00 in Rain Light Rain
5:16 AM 66.0 °F 66.0 °F 100% 29.94 in 4.0 mi NNE 17.3 mph 25.3 mph 0.02 in Rain Heavy Rain
5:26 AM 64.9 °F 64.9 °F 100% 29.94 in 5.0 mi NE 11.5 mph - 0.09 in Rain , Thunderstorm Heavy Rain
5:37 AM 64.9 °F 64.9 °F 100% 29.94 in 4.0 mi NE 10.4 mph - 0.15 in Rain , Thunderstorm Rain
5:44 AM 64.0 °F 64.0 °F 100% 29.93 in 5.0 mi North 9.2 mph - 0.19 in Rain , Thunderstorm Heavy Rain
5:51 AM 64.0 °F 64.0 °F 100% 29.91 in 6.0 mi NNE 6.9 mph - 0.21 in Rain , Thunderstorm Light Thunderstorms and Rain
6:05 AM 64.0 °F 64.0 °F 100% 29.92 in 5.0 mi NE 8.1 mph - 0.08 in Rain , Thunderstorm Rain
6:18 AM 64.0 °F 64.0 °F 100% 29.93 in 7.0 mi North 3.5 mph - 0.11 in Rain Light Rain
6:38 AM 64.0 °F 64.0 °F 100% 29.92 in 9.0 mi SE 4.6 mph - 0.12 in Rain , Thunderstorm Light Rain
6:42 AM 64.0 °F 64.0 °F 100% 29.92 in 10.0 mi NE 8.1 mph - 0.12 in Rain , Thunderstorm Light Thunderstorms and Rain
6:51 AM 64.0 °F 64.0 °F 100% 29.92 in 4.0 mi NNW 4.6 mph - 0.13 in Rain , Thunderstorm Light Thunderstorms and Rain
7:04 AM 64.0 °F 64.0 °F 100% 29.95 in 2.5 mi North 9.2 mph - 0.29 in Rain , Thunderstorm Heavy Thunderstorms and Rain
7:06 AM 64.0 °F 64.0 °F 100% 29.94 in 1.8 mi NE 10.4 mph - 0.42 in Rain , Thunderstorm Heavy Thunderstorms and Rain
7:12 AM 64.9 °F 64.9 °F 100% 29.84 in 2.0 mi East 17.3 mph - 0.52 in Rain , Thunderstorm Heavy Thunderstorms and Rain
7:22 AM 64.9 °F 64.9 °F 100% 29.90 in 10.0 mi SE 3.5 mph - 0.52 in Rain , Thunderstorm Light Thunderstorms and Rain
7:39 AM 64.9 °F 64.9 °F 100% 29.93 in 10.0 mi SW 5.8 mph - 0.52 in Thunderstorm Thunderstorm
7:51 AM 64.9 °F 64.9 °F 100% 29.92 in 10.0 mi Variable 4.6 mph - 0.52 in Rain , Thunderstorm Light Rain
8:08 AM 66.0 °F 66.0 °F 100% 29.93 in 10.0 mi West 5.8 mph - 0.00 in Thunderstorm Overcast
8:15 AM 66.0 °F 66.0 °F 100% 29.94 in 10.0 mi West 8.1 mph - 0.00 in   Overcast
8:51 AM 66.0 °F 66.0 °F 100% 29.93 in 10.0 mi SSW 3.5 mph - 0.00 in Rain Light Rain
9:14 AM 66.0 °F 66.0 °F 100% 29.95 in 10.0 mi Calm Calm - 0.00 in Rain Light Rain
9:46 AM 66.2 °F 66.2 °F 100% 29.95 in 10.0 mi SSW 4.6 mph - 0.00 in Rain Light Rain
9:51 AM 66.9 °F 66.9 °F 100% 29.94 in 10.0 mi SSW 4.6 mph - 0.00 in   Overcast
10:04 AM 66.9 °F 66.9 °F 100% 29.96 in 10.0 mi SW 4.6 mph - 0.00 in Rain Light Rain
10:51 AM 69.1 °F 69.1 °F 100% 29.93 in 10.0 mi South 10.4 mph - 0.00 in   Overcast
11:51 AM 72.0 °F 69.1 °F 91% 29.93 in 10.0 mi SSE 11.5 mph - N/A   Overcast
12:04 PM 72.0 °F 69.1 °F 91% 29.94 in 10.0 mi SSE 11.5 mph - N/A   Overcast
12:51 PM 73.0 °F 69.1 °F 87% 29.94 in 10.0 mi SSE 8.1 mph - N/A   Overcast
1:47 PM 73.4 °F 69.8 °F 88% 29.94 in 10.0 mi East 6.9 mph - 0.00 in Rain , Thunderstorm Thunderstorms and Rain
1:51 PM 73.0 °F 70.0 °F 90% 29.92 in 10.0 mi East 5.8 mph - 0.00 in Rain , Thunderstorm Light Thunderstorms and Rain
2:02 PM 73.0 °F 70.0 °F 90% 29.94 in 10.0 mi East 8.1 mph - 0.00 in Thunderstorm Overcast
2:10 PM 73.0 °F 70.0 °F 90% 29.93 in 10.0 mi ENE 6.9 mph - 0.00 in   Overcast
2:51 PM 71.1 °F 68.0 °F 90% 29.91 in 10.0 mi NE 10.4 mph - 0.00 in   Overcast
3:29 PM 73.0 °F 70.0 °F 90% 29.91 in 10.0 mi ENE 8.1 mph - N/A   Overcast
3:51 PM 73.0 °F 69.1 °F 87% 29.89 in 10.0 mi ENE 9.2 mph - N/A   Overcast
3:58 PM 73.9 °F 69.1 °F 85% 29.90 in 10.0 mi ENE 9.2 mph - N/A   Overcast
4:25 PM 73.0 °F 69.1 °F 87% 29.90 in 10.0 mi NE 9.2 mph - N/A   Overcast
4:51 PM 72.0 °F 69.1 °F 91% 29.87 in 10.0 mi NE 9.2 mph - N/A   Overcast
6:37 PM 73.9 °F 70.0 °F 87% 29.85 in 10.0 mi ENE 8.1 mph - N/A   Overcast
7:29 PM 73.9 °F 70.0 °F 87% 29.85 in 10.0 mi East 6.9 mph - N/A   Overcast
7:51 PM 73.9 °F 70.0 °F 87% 29.83 in 10.0 mi East 8.1 mph - N/A   Overcast
8:00 PM 73.9 °F 71.1 °F 91% 29.86 in 10.0 mi East 9.2 mph - N/A   Overcast
8:44 PM 73.0 °F 71.1 °F 93% 29.86 in 10.0 mi East 6.9 mph - N/A   Overcast
8:51 PM 72.0 °F 70.0 °F 93% 29.85 in 10.0 mi East 8.1 mph - N/A   Overcast
9:12 PM 72.0 °F 70.0 °F 93% 29.88 in 10.0 mi East 10.4 mph - N/A   Overcast
9:43 PM 71.1 °F 69.1 °F 93% 29.89 in 10.0 mi ENE 9.2 mph - N/A   Overcast
10:10 PM 72.0 °F 69.1 °F 91% 29.89 in 10.0 mi ESE 5.8 mph - N/A   Overcast
10:26 PM 72.0 °F 69.1 °F 91% 29.89 in 10.0 mi SE 9.2 mph - N/A   Overcast
10:42 PM 72.0 °F 70.0 °F 93% 29.89 in 10.0 mi SSE 5.8 mph - N/A   Overcast
10:51 PM 72.0 °F 70.0 °F 93% 29.87 in 10.0 mi South 6.9 mph - N/A   Overcast
11:51 PM 73.0 °F 71.1 °F 93% 29.88 in 10.0 mi SSW 3.5 mph - N/A   Overcast